,,Stat5,,Stat1,,Stat2,,Stat3,,Stat4,,Wind1,,Wind1,
time,status,PA1M_AVG,status,PR1M_SUM,status,RH1M_AVG,status,SR1M_AVG,status,TA1M_AVG,status,W1dAve1m,status,W1sAve1m,
2003-01-11, 00:00:01,VALID,921.154,VALID,0,VALID,98.5684,VALID,0.0339617,VALID,18.9462,VALID,16,VALID,0.643159,
2003-01-11, 00:01:01,VALID,921.164,VALID,0,VALID,98.6854,VALID,0.0169808,VALID,18.9429,VALID,22,VALID,0.437012,
2003-01-11, 00:02:01,VALID,921.185,VALID,0,VALID,98.6829,VALID,0.0509425,VALID,18.9653,VALID,17,VALID,0.749783,
2003-01-11, 00:03:01,VALID,921.176,VALID,0,VALID,98.6549,VALID,0.0509425,VALID,18.9591,VALID,21,VALID,0.867188,
2003-01-11, 00:04:01,VALID,921.17,VALID,0,VALID,98.6269,VALID,0.0339617,VALID,18.9593,VALID,17,VALID,0.799242,
2003-01-11, 00:05:01,VALID,921.154,VALID,0,VALID,98.5341,VALID,0.0169808,VALID,18.9397,VALID,28,VALID,1.07248,
2003-01-11, 00:06:01,VALID,921.138,VALID,0,VALID,98.4718,VALID,0.0169808,VALID,18.9141,VALID,34,VALID,0.893012,
2003-01-11, 00:07:01,VALID,921.141,VALID,0,VALID,98.4375,VALID,0.0169808,VALID,18.8746,VALID,36,VALID,0.645597,
2003-01-11, 00:08:01,VALID,921.155,VALID,0,VALID,98.4578,VALID,-0.0849042,VALID,18.8763,VALID,44,VALID,0.163616,
2003-01-11, 00:09:01,VALID,921.167,VALID,0,VALID,98.5811,VALID,-0.0849042,VALID,18.8957,VALID,44,VALID,0.0214286,
2003-01-11, 00:10:01,VALID,921.167,VALID,0,VALID,98.6028,VALID,-0.0509425,VALID,18.8989,VALID,44,VALID,0.00976563,
2003-01-11, 00:11:01,VALID,921.159,VALID,0,VALID,98.6091,VALID,-0.0679233,VALID,18.8959,VALID,44,VALID,0.0328947,
2003-01-11, 00:12:00,VALID,921.147,VALID,0,VALID,98.604,VALID,-0.0849042,VALID,18.8959,VALID,44,VALID,0.015625,
2003-01-11, 00:13:00,VALID,921.137,VALID,0,VALID,98.5557,VALID,-0.0679233,VALID,18.8798,VALID,44,VALID,0.0284091,
2003-01-11, 00:14:00,VALID,921.126,VALID,0,VALID,98.5443,VALID,-0.0509425,VALID,18.88,VALID,44,VALID,0.0112847,
2003-01-11, 00:15:00,VALID,921.113,VALID,0.2,VALID,98.5595,VALID,-0.101885,VALID,18.8569,VALID,44,VALID,0.00217014,
2003-01-11, 00:16:00,VALID,921.09,VALID,0,VALID,98.5684,VALID,-0.0849042,VALID,18.85,VALID,44,VALID,0.211884,
2003-01-11, 00:17:00,VALID,921.087,VALID,0,VALID,98.688,VALID,-0.0679233,VALID,18.8701,VALID,44,VALID,0.196875,
2003-01-11, 00:18:00,VALID,921.079,VALID,0,VALID,98.5951,VALID,-0.101885,VALID,18.8703,VALID,44,VALID,0.0761161,
2003-01-11, 00:19:00,VALID,921.073,VALID,0,VALID,98.5163,VALID,-0.0849042,VALID,18.8408,VALID,44,VALID,0.0114746,
2003-01-11, 00:20:00,VALID,921.062,VALID,0,VALID,98.5748,VALID,-0.101885,VALID,18.8281,VALID,44,VALID,0,
2003-01-11, 00:21:00,VALID,921.046,VALID,0,VALID,98.6104,VALID,-0.0679233,VALID,18.8313,VALID,44,VALID,0.0880055,
2003-01-11, 00:22:00,VALID,921.041,VALID,0,VALID,98.5964,VALID,-0.0339617,VALID,18.8246,VALID,45,VALID,0.160038,
2003-01-11, 00:23:00,VALID,921.037,VALID,0,VALID,98.6167,VALID,0.0509425,VALID,18.8202,VALID,50,VALID,0.16276,
2003-01-11, 00:24:00,VALID,921.027,VALID,0,VALID,98.6752,VALID,0.0679233,VALID,18.8294,VALID,50,VALID,0.176866,
2003-01-11, 00:25:00,VALID,921.018,VALID,0,VALID,98.6396,VALID,0.0169808,VALID,18.8199,VALID,72,VALID,0.485795,
2003-01-11, 00:26:00,VALID,921.001,VALID,0,VALID,98.6104,VALID,0.0169808,VALID,18.817,VALID,76,VALID,0.600223,
2003-01-11, 00:27:00,VALID,920.981,VALID,0,VALID,98.6702,VALID,0.0849042,VALID,18.8199,VALID,76,VALID,0.582812,
2003-01-11, 00:28:00,VALID,920.966,VALID,0,VALID,98.721,VALID,0.0509425,VALID,18.8331,VALID,61,VALID,0.571533,
2003-01-11, 00:29:00,VALID,920.957,VALID,0,VALID,98.6791,VALID,0.0509425,VALID,18.8172,VALID,61,VALID,0.519737,
2003-01-11, 00:30:00,VALID,920.94,VALID,0,VALID,98.707,VALID,0.0169808,VALID,18.8075,VALID,61,VALID,0.414982,
2003-01-11, 00:31:00,VALID,920.924,VALID,0,VALID,98.7935,VALID,0.0169808,VALID,18.8075,VALID,57,VALID,0.20928,
2003-01-11, 00:32:00,VALID,920.909,VALID,0,VALID,98.8329,VALID,0.0509425,VALID,18.817,VALID,40,VALID,0.34809,
2003-01-11, 00:33:00,VALID,920.88,VALID,0,VALID,98.8838,VALID,0.0169808,VALID,18.8301,VALID,15,VALID,0.440755,
2003-01-11, 00:34:00,VALID,920.88,VALID,0.2,VALID,98.8901,VALID,0,VALID,18.8368,VALID,12,VALID,0.495265,
2003-01-11, 00:35:00,VALID,920.86,VALID,0,VALID,98.9232,VALID,0.0339617,VALID,18.8366,VALID,8,VALID,0.597768,
2003-01-11, 00:36:00,VALID,920.845,VALID,0,VALID,98.9054,VALID,0.0169808,VALID,18.8301,VALID,8,VALID,0.453348,
2003-01-11, 00:37:00,VALID,920.842,VALID,0,VALID,98.88,VALID,0.0169808,VALID,18.801,VALID,8,VALID,0.468506,
2003-01-11, 00:38:00,VALID,920.828,VALID,0,VALID,98.8494,VALID,0.0169808,VALID,18.7821,VALID,8,VALID,0.474507,
2003-01-11, 00:39:00,VALID,920.825,VALID,0,VALID,98.9308,VALID,0.0679233,VALID,18.775,VALID,8,VALID,0.272518,
2003-01-11, 00:40:00,VALID,920.813,VALID,0,VALID,99.0313,VALID,0.0509425,VALID,18.7874,VALID,8,VALID,0.0774148,
2003-01-11, 00:41:00,VALID,920.815,VALID,0,VALID,99.0109,VALID,0.0339617,VALID,18.8043,VALID,8,VALID,0.105686,
2003-01-11, 00:42:00,VALID,920.817,VALID,0,VALID,98.9321,VALID,0.0169808,VALID,18.7717,VALID,8,VALID,0.113281,
2003-01-11, 00:43:00,VALID,920.82,VALID,0,VALID,98.9296,VALID,0,VALID,18.7427,VALID,8,VALID,0,
2003-01-11, 00:44:00,VALID,920.827,VALID,0,VALID,98.9168,VALID,0.0339617,VALID,18.7327,VALID,8,VALID,0,
2003-01-11, 00:45:00,VALID,920.83,VALID,0,VALID,98.9143,VALID,0.0169808,VALID,18.7198,VALID,8,VALID,0,
2003-01-11, 00:46:00,VALID,920.835,VALID,0,VALID,98.9245,VALID,0.0509425,VALID,18.7237,VALID,8,VALID,0.0258789,
2003-01-11, 00:47:00,VALID,920.836,VALID,0,VALID,98.9563,VALID,0.0679233,VALID,18.7332,VALID,9,VALID,0.0754523,
2003-01-11, 00:48:00,VALID,920.834,VALID,0,VALID,98.9728,VALID,0.0339617,VALID,18.7129,VALID,164,VALID,0.396599,
2003-01-11, 00:49:00,VALID,920.828,VALID,0,VALID,99.002,VALID,0.0339617,VALID,18.7364,VALID,193,VALID,0.451231,
2003-01-11, 00:50:00,VALID,920.83,VALID,0,VALID,99.0135,VALID,0,VALID,18.7427,VALID,220,VALID,0.441623,
2003-01-11, 00:51:00,VALID,920.827,VALID,0,VALID,99.0186,VALID,0.0339617,VALID,18.7424,VALID,224,VALID,0.365668,
2003-01-11, 00:52:00,VALID,920.82,VALID,0,VALID,99.0338,VALID,0.0339617,VALID,18.756,VALID,224,VALID,0.308949,
2003-01-11, 00:53:00,VALID,920.812,VALID,0,VALID,99.0109,VALID,-0.0679233,VALID,18.7473,VALID,224,VALID,0.071875,
2003-01-11, 00:54:00,VALID,920.792,VALID,0,VALID,99.0364,VALID,-0.0339617,VALID,18.7441,VALID,224,VALID,0.105804,
2003-01-11, 00:55:00,VALID,920.789,VALID,0,VALID,99.0415,VALID,-0.0849042,VALID,18.7341,VALID,224,VALID,0.0400391,
2003-01-11, 00:56:00,VALID,920.756,VALID,0,VALID,99.0809,VALID,-0.0679233,VALID,18.7466,VALID,224,VALID,0,
2003-01-11, 00:57:00,VALID,920.743,VALID,0.2,VALID,99.0491,VALID,-0.0339617,VALID,18.7503,VALID,224,VALID,0.142004,
2003-01-11, 00:58:00,VALID,920.732,VALID,0,VALID,99.0262,VALID,-0.0339617,VALID,18.7374,VALID,224,VALID,0.00473485,
2003-01-11, 00:59:00,VALID,920.722,VALID,0,VALID,99.0644,VALID,-0.0509425,VALID,18.7339,VALID,224,VALID,0,
2003-01-11, 01:00:00,VALID,920.728,VALID,0,VALID,99.0936,VALID,-0.0679233,VALID,18.7508,VALID,224,VALID,0,
2003-01-11, 01:01:00,VALID,920.73,VALID,0,VALID,99.1038,VALID,-0.0509425,VALID,18.7764,VALID,224,VALID,0.176136,
2003-01-11, 01:02:00,VALID,920.732,VALID,0,VALID,99.0593,VALID,-0.101885,VALID,18.7602,VALID,224,VALID,0.260491,
2003-01-11, 01:03:00,VALID,920.727,VALID,0,VALID,99.03,VALID,-0.0849042,VALID,18.7501,VALID,220,VALID,0.331473,
2003-01-11, 01:04:00,VALID,920.737,VALID,0,VALID,99.0287,VALID,-0.101885,VALID,18.7473,VALID,217,VALID,0.112549,
2003-01-11, 01:05:00,VALID,920.73,VALID,0,VALID,99.0427,VALID,-0.0679233,VALID,18.7411,VALID,217,VALID,0,
2003-01-11, 01:06:00,VALID,920.724,VALID,0,VALID,99.0593,VALID,-0.0849042,VALID,18.7538,VALID,217,VALID,0,
2003-01-11, 01:07:00,VALID,920.708,VALID,0,VALID,99.0567,VALID,-0.0849042,VALID,18.7637,VALID,217,VALID,0,
2003-01-11, 01:08:00,VALID,920.718,VALID,0,VALID,99.0949,VALID,-0.0849042,VALID,18.7764,VALID,223,VALID,0.0130208,
2003-01-11, 01:09:00,VALID,920.706,VALID,0,VALID,99.1292,VALID,-0.101885,VALID,18.7925,VALID,226,VALID,0,
2003-01-11, 01:10:00,VALID,920.698,VALID,0,VALID,99.1203,VALID,-0.0849042,VALID,18.7997,VALID,226,VALID,0,
2003-01-11, 01:11:00,VALID,920.681,VALID,0,VALID,99.1152,VALID,-0.0509425,VALID,18.7928,VALID,294,VALID,0.231027,
2003-01-11, 01:12:00,VALID,920.672,VALID,0,VALID,99.119,VALID,-0.0849042,VALID,18.8057,VALID,360,VALID,0.130134,
2003-01-11, 01:13:00,VALID,920.663,VALID,0,VALID,99.0796,VALID,-0.0679233,VALID,18.796,VALID,360,VALID,0,
2003-01-11, 01:14:00,VALID,920.65,VALID,0,VALID,99.0262,VALID,-0.0339617,VALID,18.7637,VALID,339,VALID,0.104235,
2003-01-11, 01:15:00,VALID,920.644,VALID,0,VALID,98.9703,VALID,-0.0679233,VALID,18.7411,VALID,312,VALID,0.155331,
2003-01-11, 01:16:00,VALID,920.63,VALID,0,VALID,98.9741,VALID,-0.101885,VALID,18.7344,VALID,312,VALID,0.0350379,
2003-01-11, 01:17:00,VALID,920.632,VALID,0,VALID,99.0644,VALID,-0.0849042,VALID,18.7602,VALID,312,VALID,0,
2003-01-11, 01:18:00,VALID,920.616,VALID,0,VALID,99.0733,VALID,-0.101885,VALID,18.7865,VALID,312,VALID,0,
2003-01-11, 01:19:00,VALID,920.611,VALID,0,VALID,99.1279,VALID,-0.0849042,VALID,18.8022,VALID,312,VALID,0,
2003-01-11, 01:20:00,VALID,920.599,VALID,0,VALID,99.1356,VALID,-0.0849042,VALID,18.8315,VALID,312,VALID,0,
2003-01-11, 01:21:00,VALID,920.599,VALID,0,VALID,99.1101,VALID,-0.0679233,VALID,18.8348,VALID,312,VALID,0,
2003-01-11, 01:22:00,VALID,920.577,VALID,0,VALID,99.0885,VALID,-0.0849042,VALID,18.8315,VALID,312,VALID,0,
2003-01-11, 01:23:00,VALID,920.548,VALID,0,VALID,99.0783,VALID,-0.0849042,VALID,18.8149,VALID,313,VALID,0.121299,
2003-01-11, 01:24:00,VALID,920.542,VALID,0,VALID,99.1279,VALID,-0.101885,VALID,18.8412,VALID,328,VALID,0.116728,
2003-01-11, 01:25:00,VALID,920.54,VALID,0,VALID,99.0555,VALID,-0.0679233,VALID,18.8313,VALID,330,VALID,0.014678,
2003-01-11, 01:26:00,VALID,920.526,VALID,0,VALID,99.0796,VALID,-0.0679233,VALID,18.8214,VALID,330,VALID,0.0993924,
2003-01-11, 01:27:00,VALID,920.521,VALID,0,VALID,99.0885,VALID,-0.0849042,VALID,18.8248,VALID,330,VALID,0,
2003-01-11, 01:28:00,VALID,920.508,VALID,0,VALID,99.0694,VALID,-0.0849042,VALID,18.8161,VALID,330,VALID,0,
2003-01-11, 01:29:00,VALID,920.503,VALID,0,VALID,99.0898,VALID,-0.0679233,VALID,18.8119,VALID,330,VALID,0.0232143,
2003-01-11, 01:30:00,VALID,920.512,VALID,0,VALID,99.0262,VALID,-0.101885,VALID,18.7928,VALID,330,VALID,0.182366,
2003-01-11, 01:31:00,VALID,920.53,VALID,0,VALID,99.0071,VALID,-0.101885,VALID,18.7572,VALID,250,VALID,0.312744,
2003-01-11, 01:32:00,VALID,920.513,VALID,0,VALID,99.0605,VALID,-0.0679233,VALID,18.7674,VALID,228,VALID,0.00616776,
2003-01-11, 01:33:00,VALID,920.497,VALID,0,VALID,99.1025,VALID,-0.0509425,VALID,18.7731,VALID,228,VALID,0,
2003-01-11, 01:34:00,VALID,920.5,VALID,0,VALID,99.0961,VALID,-0.0509425,VALID,18.7602,VALID,228,VALID,0,
2003-01-11, 01:35:00,VALID,920.505,VALID,0,VALID,99.1114,VALID,-0.0679233,VALID,18.7739,VALID,228,VALID,0.0494792,
2003-01-11, 01:36:00,VALID,920.505,VALID,0,VALID,99.1635,VALID,-0.0679233,VALID,18.7731,VALID,228,VALID,0,
2003-01-11, 01:37:00,VALID,920.499,VALID,0,VALID,99.1953,VALID,-0.0509425,VALID,18.7925,VALID,228,VALID,0,
2003-01-11, 01:38:00,VALID,920.497,VALID,0,VALID,99.1763,VALID,0,VALID,18.7953,VALID,228,VALID,0,
2003-01-11, 01:39:00,VALID,920.497,VALID,0.2,VALID,99.2042,VALID,0.0169808,VALID,18.7943,VALID,228,VALID,0,
2003-01-11, 01:40:00,VALID,920.485,VALID,0,VALID,99.1953,VALID,0.0339617,VALID,18.7879,VALID,228,VALID,0,
2003-01-11, 01:41:00,VALID,920.484,VALID,0,VALID,99.1763,VALID,0.0169808,VALID,18.7655,VALID,228,VALID,0,
2003-01-11, 01:42:00,VALID,920.474,VALID,0,VALID,99.1826,VALID,0.0169808,VALID,18.7558,VALID,228,VALID,0,
2003-01-11, 01:43:00,VALID,920.467,VALID,0,VALID,99.2335,VALID,0.0169808,VALID,18.762,VALID,228,VALID,0,
2003-01-11, 01:44:00,VALID,920.456,VALID,0,VALID,99.2767,VALID,0,VALID,18.7782,VALID,229,VALID,0.0965712,
2003-01-11, 01:45:00,VALID,920.439,VALID,0,VALID,99.3136,VALID,0.0339617,VALID,18.8105,VALID,9,VALID,0.287109,
2003-01-11, 01:46:00,VALID,920.433,VALID,0.2,VALID,99.2958,VALID,0.0339617,VALID,18.81,VALID,13,VALID,0.371922,
2003-01-11, 01:47:00,VALID,920.415,VALID,0.2,VALID,99.2869,VALID,0.0679233,VALID,18.8006,VALID,13,VALID,0.479464,
2003-01-11, 01:48:00,VALID,920.415,VALID,0,VALID,99.2742,VALID,0.0339617,VALID,18.8105,VALID,13,VALID,0.409152,
2003-01-11, 01:49:00,VALID,920.407,VALID,0,VALID,99.3009,VALID,0.0169808,VALID,18.8174,VALID,13,VALID,0.555664,
2003-01-11, 01:50:00,VALID,920.401,VALID,0.2,VALID,99.3199,VALID,0,VALID,18.8172,VALID,17,VALID,0.662007,
2003-01-11, 01:51:00,VALID,920.394,VALID,0,VALID,99.311,VALID,0.0509425,VALID,18.8142,VALID,11,VALID,0.653952,
2003-01-11, 01:52:00,VALID,920.4,VALID,0,VALID,99.3123,VALID,0,VALID,18.8045,VALID,21,VALID,0.667377,
2003-01-11, 01:53:00,VALID,920.388,VALID,0,VALID,99.3301,VALID,0.0169808,VALID,18.8008,VALID,25,VALID,0.574002,
2003-01-11, 01:54:00,VALID,920.374,VALID,0,VALID,99.353,VALID,0,VALID,18.8303,VALID,25,VALID,0.28342,
2003-01-11, 01:55:00,VALID,920.347,VALID,0,VALID,99.3466,VALID,-0.0169808,VALID,18.8045,VALID,25,VALID,0.0293561,
2003-01-11, 01:56:00,VALID,920.327,VALID,0.2,VALID,99.339,VALID,0,VALID,18.801,VALID,25,VALID,0,
2003-01-11, 01:57:00,VALID,920.323,VALID,0,VALID,99.3517,VALID,0,VALID,18.7978,VALID,25,VALID,0,
2003-01-11, 01:58:00,VALID,920.298,VALID,0,VALID,99.3708,VALID,0.0169808,VALID,18.8239,VALID,36,VALID,0.00585938,
2003-01-11, 01:59:00,VALID,920.301,VALID,0,VALID,99.3823,VALID,0.0169808,VALID,18.8207,VALID,212,VALID,0.28824,
2003-01-11, 02:00:00,VALID,920.296,VALID,0,VALID,99.3848,VALID,0.0169808,VALID,18.8174,VALID,237,VALID,0.223346,
2003-01-11, 02:01:00,VALID,920.279,VALID,0,VALID,99.3899,VALID,0,VALID,18.8209,VALID,237,VALID,0,
2003-01-11, 02:02:00,VALID,920.26,VALID,0.2,VALID,99.4217,VALID,0,VALID,18.8465,VALID,257,VALID,0.047526,
2003-01-11, 02:03:00,VALID,920.23,VALID,0,VALID,99.4382,VALID,0,VALID,18.8689,VALID,33,VALID,0.674479,
2003-01-11, 02:04:00,VALID,920.195,VALID,0,VALID,99.4509,VALID,0,VALID,18.8885,VALID,28,VALID,0.815104,
2003-01-11, 02:05:00,VALID,920.136,VALID,0,VALID,99.4636,VALID,0.0339617,VALID,18.9275,VALID,18,VALID,0.796224,
2003-01-11, 02:06:00,VALID,920.136,VALID,0,VALID,99.4585,VALID,0.0169808,VALID,18.9208,VALID,2,VALID,0.599107,
2003-01-11, 02:07:00,VALID,920.136,VALID,0,VALID,99.4382,VALID,-0.0169808,VALID,18.8689,VALID,352,VALID,0.660156,
2003-01-11, 02:08:00,VALID,920.107,VALID,0,VALID,99.409,VALID,0.0339617,VALID,18.8266,VALID,357,VALID,0.379523,
2003-01-11, 02:09:00,VALID,920.083,VALID,0,VALID,99.3962,VALID,0,VALID,18.7941,VALID,349,VALID,0.693704,
2003-01-11, 02:10:00,VALID,920.063,VALID,0,VALID,99.3835,VALID,0,VALID,18.7817,VALID,6,VALID,0.535748,
2003-01-11, 02:11:00,VALID,920.048,VALID,0,VALID,99.4026,VALID,0,VALID,18.7814,VALID,15,VALID,0.7398,
2003-01-11, 02:12:00,VALID,920.022,VALID,0.2,VALID,99.4229,VALID,-0.0169808,VALID,18.8105,VALID,14,VALID,0.672743,
2003-01-11, 02:13:00,VALID,919.993,VALID,0,VALID,99.4484,VALID,0,VALID,18.8398,VALID,16,VALID,1.0322,
2003-01-11, 02:14:00,VALID,919.959,VALID,0,VALID,99.4408,VALID,0,VALID,18.8239,VALID,343,VALID,0.861161,
2003-01-11, 02:15:00,VALID,919.935,VALID,0,VALID,99.4242,VALID,0,VALID,18.775,VALID,15,VALID,1.0846,
2003-01-11, 02:16:00,VALID,919.916,VALID,0,VALID,99.4128,VALID,0,VALID,18.7655,VALID,358,VALID,1.13379,
2003-01-11, 02:17:00,VALID,919.897,VALID,0,VALID,99.4102,VALID,0,VALID,18.7593,VALID,346,VALID,0.7794,
2003-01-11, 02:18:00,VALID,919.875,VALID,0,VALID,99.4001,VALID,0,VALID,18.7297,VALID,11,VALID,0.677619,
2003-01-11, 02:19:00,VALID,919.86,VALID,0,VALID,99.409,VALID,0,VALID,18.7332,VALID,355,VALID,0.543797,
2003-01-11, 02:20:00,VALID,919.848,VALID,0,VALID,99.4217,VALID,0.0169808,VALID,18.7235,VALID,351,VALID,0.676432,
2003-01-11, 02:21:00,VALID,919.827,VALID,0,VALID,99.4179,VALID,0.0169808,VALID,18.7044,VALID,15,VALID,0.919054,
2003-01-11, 02:22:00,VALID,919.807,VALID,0.2,VALID,99.4331,VALID,0,VALID,18.7108,VALID,7,VALID,0.797112,
2003-01-11, 02:23:00,VALID,919.798,VALID,0,VALID,99.4357,VALID,0,VALID,18.7205,VALID,7,VALID,0.526786,
2003-01-11, 02:24:00,VALID,919.802,VALID,0,VALID,99.4484,VALID,0,VALID,18.7044,VALID,350,VALID,0.672321,
2003-01-11, 02:25:00,VALID,919.801,VALID,0,VALID,99.442,VALID,0,VALID,18.6882,VALID,11,VALID,0.814697,
2003-01-11, 02:26:00,VALID,919.795,VALID,0,VALID,99.4433,VALID,0,VALID,18.6917,VALID,343,VALID,0.521176,
2003-01-11, 02:27:00,VALID,919.782,VALID,0,VALID,99.4547,VALID,0,VALID,18.6847,VALID,355,VALID,0.469439,
2003-01-11, 02:28:00,VALID,919.786,VALID,0,VALID,99.47,VALID,0.0169808,VALID,18.678,VALID,2,VALID,0.209754,
2003-01-11, 02:29:00,VALID,919.78,VALID,0,VALID,99.4853,VALID,0,VALID,18.6974,VALID,7,VALID,0.347439,
2003-01-11, 02:30:00,VALID,919.774,VALID,0,VALID,99.484,VALID,0.0169808,VALID,18.6977,VALID,19,VALID,0.293403,
2003-01-11, 02:31:00,VALID,919.755,VALID,0,VALID,99.4942,VALID,0,VALID,18.724,VALID,19,VALID,0.204309,
2003-01-11, 02:32:00,VALID,919.74,VALID,0,VALID,99.512,VALID,0,VALID,18.7498,VALID,19,VALID,0.0611607,
2003-01-11, 02:33:00,VALID,919.745,VALID,0,VALID,99.5247,VALID,0,VALID,18.769,VALID,19,VALID,0.00401786,
2003-01-11, 02:34:00,VALID,919.742,VALID,0,VALID,99.531,VALID,0,VALID,18.7784,VALID,19,VALID,0.100342,
2003-01-11, 02:35:00,VALID,919.755,VALID,0,VALID,99.5247,VALID,0.0169808,VALID,18.762,VALID,19,VALID,0.0283717,
2003-01-11, 02:36:00,VALID,919.739,VALID,0,VALID,99.5221,VALID,0,VALID,18.766,VALID,19,VALID,0,
2003-01-11, 02:37:00,VALID,919.738,VALID,0,VALID,99.517,VALID,0,VALID,18.7563,VALID,19,VALID,0,
2003-01-11, 02:38:00,VALID,919.722,VALID,0,VALID,99.512,VALID,0,VALID,18.7881,VALID,19,VALID,0,
2003-01-11, 02:39:00,VALID,919.716,VALID,0,VALID,99.5158,VALID,0,VALID,18.7921,VALID,19,VALID,0,
2003-01-11, 02:40:00,VALID,919.707,VALID,0,VALID,99.5259,VALID,0.0169808,VALID,18.8015,VALID,19,VALID,0,
2003-01-11, 02:41:00,VALID,919.687,VALID,0.2,VALID,99.5285,VALID,0,VALID,18.8077,VALID,19,VALID,0,
2003-01-11, 02:42:00,VALID,919.689,VALID,0,VALID,99.5259,VALID,-0.0169808,VALID,18.7943,VALID,19,VALID,0,
2003-01-11, 02:43:00,VALID,919.678,VALID,0,VALID,99.5285,VALID,0,VALID,18.8209,VALID,19,VALID,0,
2003-01-11, 02:44:00,VALID,919.672,VALID,0,VALID,99.5132,VALID,-0.0169808,VALID,18.8147,VALID,19,VALID,0,
2003-01-11, 02:45:00,VALID,919.661,VALID,0,VALID,99.5145,VALID,0.0169808,VALID,18.808,VALID,19,VALID,0,
2003-01-11, 02:46:00,VALID,919.654,VALID,0,VALID,99.5107,VALID,0.0169808,VALID,18.8073,VALID,19,VALID,0,
2003-01-11, 02:47:00,VALID,919.64,VALID,0,VALID,99.5069,VALID,0.0169808,VALID,18.8082,VALID,19,VALID,0,
2003-01-11, 02:48:00,VALID,919.627,VALID,0,VALID,99.5069,VALID,-0.0169808,VALID,18.8177,VALID,19,VALID,0,
2003-01-11, 02:49:00,VALID,919.621,VALID,0,VALID,99.4954,VALID,-0.0339617,VALID,18.8241,VALID,19,VALID,0,
2003-01-11, 02:50:00,VALID,919.614,VALID,0.2,VALID,99.498,VALID,0.0169808,VALID,18.8077,VALID,19,VALID,0,
2003-01-11, 02:51:00,VALID,919.6,VALID,0,VALID,99.4954,VALID,0,VALID,18.8211,VALID,19,VALID,0,
2003-01-11, 02:52:00,VALID,919.588,VALID,0,VALID,99.4776,VALID,0,VALID,18.7879,VALID,19,VALID,0,
2003-01-11, 02:53:00,VALID,919.58,VALID,0,VALID,99.4929,VALID,-0.0169808,VALID,18.808,VALID,19,VALID,0,
2003-01-11, 02:54:00,VALID,919.566,VALID,0,VALID,99.4967,VALID,-0.0679233,VALID,18.8239,VALID,19,VALID,0.0379136,
2003-01-11, 02:55:00,VALID,919.558,VALID,0,VALID,99.5043,VALID,0,VALID,18.8398,VALID,19,VALID,0.316761,
2003-01-11, 02:56:00,VALID,919.549,VALID,0,VALID,99.5094,VALID,0,VALID,18.8525,VALID,19,VALID,0.386502,
2003-01-11, 02:57:00,VALID,919.542,VALID,0,VALID,99.5145,VALID,0,VALID,18.8753,VALID,19,VALID,0.294271,
2003-01-11, 02:58:00,VALID,919.528,VALID,0,VALID,99.5196,VALID,0,VALID,18.882,VALID,19,VALID,0.149858,
2003-01-11, 02:59:00,VALID,919.521,VALID,0,VALID,99.5145,VALID,0,VALID,18.9014,VALID,19,VALID,0.0910714,
2003-01-11, 03:00:00,VALID,919.507,VALID,0.2,VALID,99.5107,VALID,-0.0169808,VALID,18.8883,VALID,19,VALID,0.230134,
2003-01-11, 03:01:00,VALID,919.462,VALID,0,VALID,99.5031,VALID,0,VALID,18.8984,VALID,19,VALID,0.380127,
2003-01-11, 03:02:00,VALID,919.443,VALID,0,VALID,99.5005,VALID,0.0169808,VALID,18.8719,VALID,19,VALID,0.266036,
2003-01-11, 03:03:00,VALID,919.433,VALID,0,VALID,99.4865,VALID,-0.0169808,VALID,18.8629,VALID,19,VALID,0.193704,
2003-01-11, 03:04:00,VALID,919.416,VALID,0,VALID,99.4713,VALID,0,VALID,18.8269,VALID,19,VALID,0.236979,
2003-01-11, 03:05:00,VALID,919.397,VALID,0,VALID,99.442,VALID,0,VALID,18.772,VALID,19,VALID,0.31467,
2003-01-11, 03:06:00,VALID,919.364,VALID,0,VALID,99.4369,VALID,0,VALID,18.7526,VALID,19,VALID,0.252387,
2003-01-11, 03:07:00,VALID,919.346,VALID,0,VALID,99.4382,VALID,-0.0169808,VALID,18.7394,VALID,26,VALID,0.448864,
2003-01-11, 03:08:00,VALID,919.322,VALID,0,VALID,99.4395,VALID,0,VALID,18.7523,VALID,43,VALID,0.581473,
2003-01-11, 03:09:00,VALID,919.293,VALID,0,VALID,99.4408,VALID,0.0169808,VALID,18.7491,VALID,45,VALID,0.528795,
2003-01-11, 03:10:00,VALID,919.276,VALID,0,VALID,99.4395,VALID,0,VALID,18.7461,VALID,45,VALID,0.365723,
2003-01-11, 03:11:00,VALID,919.275,VALID,0,VALID,99.4433,VALID,0,VALID,18.73,VALID,45,VALID,0.0912829,
2003-01-11, 03:12:00,VALID,919.268,VALID,0.2,VALID,99.428,VALID,0,VALID,18.7173,VALID,45,VALID,0,
2003-01-11, 03:13:00,VALID,919.262,VALID,0,VALID,99.4306,VALID,0,VALID,18.7106,VALID,45,VALID,0,
2003-01-11, 03:14:00,VALID,919.249,VALID,0,VALID,99.4318,VALID,0.0169808,VALID,18.7076,VALID,45,VALID,0,
2003-01-11, 03:15:00,VALID,919.25,VALID,0,VALID,99.4395,VALID,0,VALID,18.717,VALID,45,VALID,0,
2003-01-11, 03:16:00,VALID,919.236,VALID,0,VALID,99.4382,VALID,-0.0169808,VALID,18.7235,VALID,45,VALID,0.00189394,
2003-01-11, 03:17:00,VALID,919.242,VALID,0,VALID,99.4408,VALID,0.0169808,VALID,18.727,VALID,45,VALID,0.0662946,
2003-01-11, 03:18:00,VALID,919.222,VALID,0,VALID,99.4357,VALID,0,VALID,18.7304,VALID,48,VALID,0.244643,
2003-01-11, 03:19:00,VALID,919.217,VALID,0,VALID,99.4433,VALID,0,VALID,18.717,VALID,89,VALID,0.250732,
2003-01-11, 03:20:00,VALID,919.204,VALID,0,VALID,99.4293,VALID,0,VALID,18.7203,VALID,117,VALID,0.432566,
2003-01-11, 03:21:00,VALID,919.19,VALID,0,VALID,99.4433,VALID,0,VALID,18.7106,VALID,139,VALID,0.530101,
2003-01-11, 03:22:00,VALID,919.177,VALID,0,VALID,99.4318,VALID,0,VALID,18.7108,VALID,150,VALID,0.700284,
2003-01-11, 03:23:00,VALID,919.152,VALID,0,VALID,99.4255,VALID,0,VALID,18.7071,VALID,150,VALID,0.499566,
2003-01-11, 03:24:00,VALID,919.155,VALID,0,VALID,99.4179,VALID,0,VALID,18.7113,VALID,147,VALID,0.469401,
2003-01-11, 03:25:00,VALID,919.142,VALID,0,VALID,99.4153,VALID,0,VALID,18.6979,VALID,128,VALID,0.334517,
2003-01-11, 03:26:00,VALID,919.121,VALID,0.2,VALID,99.4433,VALID,0.0169808,VALID,18.7076,VALID,100,VALID,0.117634,
2003-01-11, 03:27:00,VALID,919.097,VALID,0,VALID,99.4382,VALID,0,VALID,18.6974,VALID,100,VALID,0.167857,
2003-01-11, 03:28:00,VALID,919.086,VALID,0,VALID,99.4484,VALID,0,VALID,18.7141,VALID,100,VALID,0.164307,
2003-01-11, 03:29:00,VALID,919.07,VALID,0,VALID,99.4547,VALID,0.0169808,VALID,18.7205,VALID,100,VALID,0.216283,
2003-01-11, 03:30:00,VALID,919.055,VALID,0,VALID,99.4484,VALID,0,VALID,18.7168,VALID,100,VALID,0.0553768,
2003-01-11, 03:31:00,VALID,919.054,VALID,0,VALID,99.4369,VALID,0,VALID,18.721,VALID,100,VALID,0.0179924,
2003-01-11, 03:32:00,VALID,919.041,VALID,0,VALID,99.4102,VALID,0,VALID,18.6949,VALID,100,VALID,0.270833,
2003-01-11, 03:33:00,VALID,919.049,VALID,0,VALID,99.4166,VALID,0,VALID,18.6714,VALID,100,VALID,0.199219,
2003-01-11, 03:34:00,VALID,919.047,VALID,0,VALID,99.4179,VALID,0,VALID,18.6617,VALID,100,VALID,0.216383,
2003-01-11, 03:35:00,VALID,919.068,VALID,0,VALID,99.4357,VALID,0,VALID,18.6785,VALID,100,VALID,0.11317,
2003-01-11, 03:36:00,VALID,919.062,VALID,0,VALID,99.4471,VALID,0.0169808,VALID,18.685,VALID,100,VALID,0.136607,
2003-01-11, 03:37:00,VALID,919.061,VALID,0,VALID,99.4535,VALID,0.0339617,VALID,18.6882,VALID,100,VALID,0.0146484,